Location: Bouchavesnes-Bergen
(49.9859°N, 2.9203°E)
Time: 00:13:43
(UTC+00:00)

Cosmos 1602 - Pass Details

Date: 09 March 2021
Orbit: 512 x 534 km, 82.5° (Epoch: 13 April)

Event Time Altitude Azimuth Distance (km) Brightness Sun altitude
Rises 05:03:57 0° 345° (NNW) 2,694 7.3 -12.2°
Reaches altitude 10° 05:06:10 10° 339° (NNW) 1,796 6.3 -11.8°
Maximum altitude 05:09:57 46° 266° (W) 726 4.0 -11.2°
Drops below altitude 10° 05:13:40 10° 193° (SSW) 1,771 6.2 -10.6°
Sets 05:15:51 0° 187° (S) 2,651 7.2 -10.3°
